Tracking 27079 objects as of 23-Mar-2023
HD Live streaming from Space Station
objects crossing your sky now

STARLINK-4000

Track STARLINK-4000 now!
10-day predictions
STARLINK-4000 is classified as:


NORAD ID: 52605
Int'l Code: 2022-052H
Perigee: 545.9 km
Apogee: 547.8 km
Inclination: 53.2 °
Period: 95.4 minutes
Semi major axis: 6917 km
RCS: Unknown
Launch date: May 14, 2022
Source: United States (US)
Launch site: AIR FORCE EASTERN TEST RANGE (AFETR)
Your satellite tracking list
Your tracking list is empty




NASA's NSSDC Master Catalog

Two Line Element Set (TLE):
1 52605U 22052H   23082.32753515  .00001679  00000-0  12352-3 0  9994
2 52605  53.2154 103.0336 0001382  92.3814 267.7336 15.08843118 47382
Source of the keplerian elements: AFSPC